Home > Weather > Neenah > Past weeks

Flag for U.S.A. Weather for the Past 2 Weeks in Neenah, Wisconsin, U.S.A.

Now
25 °F

Overcast.


Feels Like: 14 °F
Forecast: 21 / 30 °F
Wind: 12 mph from Southwest

Location: Appleton / Outagamie

Current Time: Feb 6, 2016 at 2:14:10 AM

Latest Report: Feb 6, 2016 at 1:35 AM


Visibility: 10 mi

Pressure: 30.18 "Hg

Humidity: 74%

Dew point: 18 °F

Location of NeenahLocation

Historic Weather in Neenah — Graph

°F

Neenah Temperature Yesterday

Maximum temperature yesterday: 28 °F (at 2:45 PM)
Minimum temperature yesterday: 12 °F (at 6:45 AM)
Average temperature yesterday: 21 °F

High & Low Weather Summary for the Past Weeks

 TemperatureHumidityPressure
High37 °F (Jan 30, 12:45 PM)100% (Jan 23, 10:45 AM)30.33 "Hg (Jan 23, 10:45 AM)
Low7 °F (Jan 29, 5:45 AM)54% (Jan 28, 6:45 PM)29.43 "Hg (Feb 3, 5:45 AM)
Average26 °F82%29.88 "Hg
* Reported Jan 22 12:15 AM — Feb 6 12:55 AM, Neenah, Weather by CustomWeather, © 2016

Note: Actual official high and low records may vary slightly from our data, if they occured in-between our weather recording intervals... More about our weather records

Advertising

Neenah Weather History for the Previous 24 Hours

 ConditionsComfort  
Time TempWeatherWind HumidityBarometerVisibility
12:55 AM
Sat, Feb 6
25 °FOvercast.16 mph74%30.18 "Hg10 mi
12:35 AM25 °FOvercast.13 mph74%30.19 "Hg10 mi
12:15 AM25 °FMostly cloudy.12 mph74%30.20 "Hg10 mi
11:55 PM
Fri, Feb 5
25 °FMostly cloudy.10 mph74%30.20 "Hg10 mi
11:35 PM25 °FOvercast.9 mph74%30.20 "Hg10 mi
11:15 PM23 °FMostly cloudy.8 mph80%30.21 "Hg10 mi
10:55 PM23 °FMostly cloudy.8 mph80%30.21 "Hg10 mi
9:45 PM23 °FOvercast.9 mph74%30.22 "Hg10 mi
8:45 PM21 °FMostly cloudy.8 mph80%30.23 "Hg10 mi
7:45 PM23 °FOvercast.8 mph74%30.25 "Hg10 mi
6:45 PM23 °FPassing clouds.7 mph74%30.26 "Hg10 mi
4:45 PM25 °FPartly sunny.8 mph63%30.27 "Hg10 mi
3:45 PM27 °FPartly sunny.6 mph54%30.27 "Hg10 mi
2:45 PM28 °FScattered clouds.7 mph55%30.27 "Hg10 mi
1:45 PM27 °FScattered clouds.5 mph64%30.28 "Hg10 mi
12:45 PM27 °FScattered clouds.7 mph54%30.29 "Hg10 mi
11:45 AM23 °FScattered clouds.7 mph63%30.30 "Hg10 mi
10:45 AM19 °FScattered clouds.6 mph73%30.32 "Hg10 mi
9:45 AM18 °FScattered clouds.6 mph79%30.32 "Hg10 mi
8:45 AM14 °FScattered clouds.7 mph85%30.31 "Hg10 mi
7:45 AM12 °FScattered clouds.8 mph85%30.30 "Hg10 mi
6:45 AM12 °FClear.9 mph85%30.28 "Hg7 mi
5:45 AM14 °FClear.8 mph92%30.26 "Hg10 mi
5:22 AM16 °FClear.8 mph86%30.24 "Hg10 mi
4:15 AM21 °FOvercast.9 mph86%30.24 "Hg10 mi
3:55 AM19 °FMostly cloudy.7 mph93%30.24 "Hg10 mi
3:35 AM18 °FPassing clouds.7 mph86%30.24 "Hg10 mi
3:15 AM19 °FPassing clouds.8 mph79%30.23 "Hg10 mi
2:55 AM21 °FOvercast.8 mph86%30.22 "Hg10 mi
2:35 AM21 °FOvercast.6 mph86%30.22 "Hg10 mi
2:15 AM21 °FOvercast.6 mph86%30.22 "Hg10 mi
Weather by CustomWeather, © 2016

See weather overviewHow to use our weather pages